OPTUS D3

Last updated on Jan. 17, 2021, 6:29 a.m. UTC

1 35756U 09044B   21016.77865404 -.00000151  00000-0  00000-0 0  9992
2 35756   0.0378 338.1042 0003775 333.4092 241.1959  1.00272716 41735
UTC
Height (km)
Latitude
Longitude
Inclination
Orbital Period
UTC large
Height (km)
Speed (km/s)
/
Latitude / Longitude
Inclination (degrees)
Orbital Period (minutes)
Azimuth
Elevation
Range (km)
Doppler Factor
iOS Compass Heading
iOS Angle

Next 30 passes for location: Hong Kong

Rise time Rise Azimuth (degrees) Set time Set Azimuth (degrees) Duration Max altitude (degrees)

No matching passes for this satellites